Wetbulb
61.12 56.47 56.64 54.40 45.36 42.40 40.69 45.58 51.08 51.12 51.77 55.23 56.14 62.20 62.52 63.23 61.03 55.33 69.84 73.77 75.33 75.21 76.21 76.91 77.17 77.23 76.85 76.62 76.62 76.61 76.14 76.22 76.34 76.51 76.49 76.49 76.74 76.94 76.89 76.82 76.80 76.78 75.77 74.67 73.57 73.88 74.08 73.79 73.55
57.69 57.94 54.39 49.53 41.12 35.78 39.95 48.58 49.52 52.03 54.51 56.71 55.86 64.81 64.52 63.32 69.58 69.98 71.20 74.94 75.45 75.38 75.91 76.05 77.40 77.18 76.75 76.57 76.34 76.33 76.11 76.17 76.26 76.58 76.51 76.54 76.51 76.69 76.79 76.76 77.00 76.56 75.38 74.22 73.65 73.77 74.02 73.72 73.44
58.44 56.68 48.39 44.11 39.33 38.18 41.18 49.42 51.68 53.48 55.01 55.25 55.54 66.99 65.80 66.26 70.04 70.76 73.60 74.99 75.40 74.96 75.42 75.90 77.35 77.00 76.88 76.54 76.16 76.10 75.84 75.94 76.16 76.61 76.58 76.46 76.26 76.21 76.13 76.27 76.32 75.80 74.58 73.76 73.55 74.02 74.53 74.02 73.54
53.21 50.23 47.70 40.60 38.93 43.38 47.54 50.93 53.18 54.11 55.42 56.26 63.74 63.53 67.44 70.39 70.85 72.94 75.00 75.34 74.55 74.86 75.24 76.67 77.09 76.82 76.52 76.57 76.36 76.28 75.92 75.87 76.04 76.48 76.65 76.35 76.43 76.12 75.80 75.81 75.50 75.22 74.27 73.74 73.98 74.64 74.88 74.35 73.65
48.85 45.39 39.83 36.76 40.22 44.27 49.33 51.93 53.49 52.85 54.96 54.68 60.62 63.37 64.42 70.07 73.68 74.53 74.52 74.54 74.13 74.44 75.16 76.10 76.83 76.79 76.62 76.49 76.34 76.36 75.89 75.66 75.79 76.26 76.45 76.50 76.14 75.89 75.80 75.54 75.40 74.92 74.54 74.00 73.70 74.38 74.52 74.35 74.05
43.19 43.35 35.28 35.96 40.85 45.59 48.48 51.02 53.45 53.68 55.13 53.96 57.29 57.22 58.77 70.38 72.36 73.43 74.05 73.46 75.34 74.82 75.36 75.84 76.81 76.73 76.36 76.34 76.26 76.08 75.78 75.68 75.78 75.83 76.05 76.37 75.83 75.73 75.59 75.29 74.90 74.58 74.43 74.25 74.05 74.37 74.15 73.74 73.30
40.41 37.40 34.06 37.30 39.80 42.64 47.54 51.06 51.37 53.10 54.81 54.60 56.66 53.83 56.78 62.09 71.98 73.79 73.43 73.58 75.17 75.27 75.22 75.44 75.63 76.35 76.39 75.92 75.69 75.74 75.51 75.39 75.39 75.13 75.35 75.60 75.65 75.45 75.28 74.67 74.37 74.10 73.87 73.60 73.30 73.23 73.13 72.54 71.80
42.33 38.63 34.10 36.95 39.07 40.74 48.19 49.65 51.13 52.44 55.59 58.95 58.98 53.04 51.16 56.56 70.02 72.45 72.92 73.12 74.08 74.40 74.52 74.82 75.25 75.42 74.59 74.55 75.97 75.61 75.36 75.33 75.16 75.27 75.34 75.09 75.37 75.27 74.93 73.72 73.73 73.80 73.35 72.66 72.19 72.14 71.87 71.05 70.08
43.86 35.06 32.67 35.07 38.96 41.37 48.56 46.70 51.88 55.98 57.36 58.00 57.67 56.01 57.03 59.23 64.65 67.66 69.92 72.09 72.86 73.33 73.12 73.76 74.93 75.31 74.76 74.42 75.21 75.50 75.90 75.61 75.27 75.24 75.24 74.09 73.37 73.55 73.91 73.20 73.88 73.59 72.98 72.49 71.60 71.20 70.43 69.80 69.36
39.11 32.93 36.37 41.84 42.85 41.84 46.14 46.58 49.25 48.92 53.87 56.67 56.96 59.28 59.04 58.46 54.59 58.08 66.59 68.60 71.59 71.70 72.20 72.75 74.09 73.26 74.29 75.24 74.66 74.26 74.76 74.64 74.11 74.18 73.99 72.93 72.38 72.02 73.13 72.92 73.95 73.47 72.95 72.44 71.70 70.88 70.07 69.66 62.43
39.02 37.90 41.45 43.62 45.34 46.40 46.02 47.17 49.77 47.91 51.27 56.83 56.40 56.06 55.77 55.16 53.59 54.06 61.36 67.09 69.31 70.69 72.06 72.36 72.23 72.55 72.48 73.60 74.29 74.35 74.43 74.29 73.60 73.82 73.10 71.80 72.01 72.14 72.04 70.08 71.76 69.83 71.96 68.62 69.26 67.47 65.72 63.64 62.42
36.73 42.50 44.18 45.32 46.73 46.48 45.00 49.30 48.33 50.01 51.12 58.76 59.65 55.44 53.19 52.27 52.28 51.44 53.14 65.43 68.39 69.93 70.85 70.73 70.86 71.79 72.13 73.87 73.30 72.60 73.03 73.17 73.52 73.57 72.58 71.36 70.88 70.68 70.59 69.50 69.94 68.43 67.78 66.05 65.49 63.90 63.45 62.57 61.63
39.48 42.28 44.80 46.20 46.23 46.18 46.99 46.80 48.29 47.25 52.55 57.56 57.40 57.01 56.06 51.29 51.74 51.91 52.43 54.60 66.93 68.70 69.46 67.20 66.89 67.18 70.95 72.72 68.75 70.06 72.42 72.81 73.43 72.82 72.92 71.74 70.42 70.49 69.64 69.29 68.85 68.17 66.64 65.59 63.62 62.72 62.24 61.20 60.89
43.28 44.00 44.72 45.58 45.08 45.08 46.11 46.93 46.53 48.94 50.78 52.98 51.25 51.63 51.52 51.69 51.85 50.06 51.14 52.75 64.96 68.46 67.39 65.11 67.71 70.31 70.76 68.83 66.30 66.46 67.13 73.38 73.25 73.04 72.89 72.21 71.29 70.55 69.47 68.80 67.92 67.09 65.94 65.55 63.47 62.43 61.51 60.66 60.36
45.42 41.28 43.92 44.81 44.09 43.77 47.54 44.05 44.36 47.91 48.69 48.90 49.97 50.35 50.99 51.00 51.63 50.87 51.71 53.30 54.03 66.03 66.76 64.77 68.30 71.40 71.01 69.26 66.67 65.05 66.35 72.88 73.26 72.91 72.86 72.78 71.87 71.11 70.29 68.94 67.71 67.07 66.41 65.23 61.87 61.66 60.70 60.66 61.22
41.93 40.64 35.90 41.48 44.30 45.71 44.83 40.41 45.43 47.72 46.41 46.48 48.31 49.49 50.61 50.89 51.73 51.49 53.43 55.87 58.79 62.10 65.68 63.63 68.28 70.62 69.77 68.60 66.74 66.93 67.34 70.78 73.02 73.15 73.19 73.43 72.78 71.47 70.49 68.90 67.88 67.57 66.33 65.17 63.26 61.63 61.90 61.93 61.80
37.72 33.84 35.50 39.84 43.60 43.44 42.55 39.84 45.85 47.47 46.57 45.84 46.06 47.86 49.51 49.70 50.77 52.29 53.16 53.70 56.77 64.20 67.35 67.23 67.49 66.03 65.95 66.03 66.11 65.02 68.49 70.58 71.50 71.69 72.25 72.66 73.18 72.14 70.43 70.10 68.55 68.03 66.38 64.94 64.44 62.40 61.54 62.42 63.22
34.56 34.93 37.74 38.61 44.87 44.54 42.29 41.83 44.75 45.64 46.61 46.49 45.34 46.68 48.01 48.96 49.74 51.42 52.34 53.67 58.59 58.88 67.71 68.35 66.19 64.95 62.59 62.36 66.26 69.68 71.43 70.53 70.98 70.60 70.23 71.01 72.28 72.23 70.02 69.95 69.50 66.39 66.91 65.12 64.37 62.55 62.92 62.63 64.11
40.57 39.40 38.46 41.69 44.79 42.94 41.05 42.87 43.74 44.20 44.67 44.55 44.48 45.50 46.54 47.97 50.44 50.55 51.55 52.94 55.19 57.88 61.66 64.71 66.28 66.08 63.87 63.70 68.66 70.07 69.96 69.29 70.12 69.90 69.93 69.68 70.29 71.21 70.77 69.92 69.09 66.88 66.67 66.45 63.82 64.91 63.89 62.97 63.47
41.53 39.68 39.00 41.65 45.08 42.14 42.05 41.51 43.77 44.16 44.60 45.21 45.89 45.69 45.95 46.57 47.97 49.84 51.93 54.06 53.56 55.05 56.30 56.89 56.15 61.83 68.93 70.09 70.65 71.12 70.38 70.31 71.15 71.60 70.63 69.52 69.94 70.23 70.76 70.48 69.84 68.41 67.99 66.47 66.29 64.98 63.91 64.35 63.94
40.71 38.45 38.53 39.15 43.04 42.46 40.42 38.27 40.57 44.70 46.02 46.89 46.17 46.61 47.61 47.22 48.37 51.30 52.88 52.63 54.65 55.70 57.29 58.83 60.58 59.66 60.63 64.07 68.95 69.58 69.87 68.52 68.59 68.73 70.08 71.32 70.76 70.49 70.06 69.66 70.22 69.48 68.85 68.01 67.05 66.87 65.90 64.30 63.46
37.77 43.53 43.01 42.51 38.32 32.95 40.90 30.01 37.48 42.10 43.57 45.37 46.00 45.79 47.29 48.98 49.57 51.33 51.41 51.53 52.67 53.49 55.99 56.73 56.96 57.59 58.44 60.42 60.65 61.31 64.96 65.17 66.79 68.07 68.63 69.15 70.01 70.66 70.56 69.40 68.67 69.60 68.96 68.32 67.82 67.62 66.73 65.90 63.45
41.30 44.67 43.27 41.76 36.56 33.95 36.50 32.06 35.91 40.84 41.30 43.22 44.93 47.10 46.96 48.21 49.38 50.01 50.52 51.81 51.78 53.01 53.59 54.97 54.65 55.82 56.86 57.24 57.69 58.96 58.76 61.56 64.60 65.82 66.35 67.13 68.66 69.09 70.72 70.20 69.10 68.49 68.43 68.03 68.26 67.39 66.80 66.85 65.45
48.31 44.23 40.73 37.79 34.72 28.92 34.61 34.23 33.53 38.36 41.32 42.95 44.76 46.66 47.92 47.96 48.36 48.95 49.67 50.32 50.43 50.45 51.18 52.71 52.42 53.05 54.36 56.08 57.30 57.29 56.40 56.11 57.41 58.95 61.54 64.07 65.79 66.60 68.48 69.59 69.73 69.50 68.57 67.33 67.38 67.20 66.39 66.43 65.98
44.58 37.15 28.38 28.02 27.89 28.12 40.02 37.10 37.48 43.58 45.78 45.32 45.11 45.91 47.92 48.22 48.06 48.49 49.11 48.55 48.44 48.54 49.37 51.44 50.89 51.09 52.67 53.91 54.73 54.92 54.96 55.07 56.25 57.41 58.93 61.41 63.35 63.42 64.72 67.87 68.22 68.59 69.38 68.70 67.89 67.49 66.83 66.92 66.59
41.83 38.48 32.33 27.05 27.69 32.24 40.79 35.97 39.14 46.59 47.72 47.01 47.28 46.48 47.12 46.71 46.93 47.71 48.20 47.61 47.74 48.75 49.75 50.62 50.67 50.61 51.10 52.26 53.09 53.18 53.54 54.87 56.07 57.26 57.58 57.34 59.05 61.86 63.24 64.97 67.97 68.53 68.09 68.12 66.22 62.26 61.58 61.50 62.57
41.97 37.09 42.19 35.81 36.66 31.57 36.27 40.27 43.29 45.94 45.74 46.11 45.57 46.37 44.76 44.78 45.20 46.31 46.98 47.20 47.66 47.11 47.48 47.24 47.95 49.04 50.05 51.57 50.51 50.79 52.19 53.64 54.67 56.15 57.43 57.77 58.26 60.55 60.80 62.15 65.47 67.54 67.95 66.71 65.61 63.85 61.77 61.41 61.37
43.85 45.60 35.48 33.75 26.68 25.63 33.76 36.31 36.06 39.23 41.01 43.58 42.42 41.59 42.52 43.64 44.18 44.57 45.11 45.55 45.78 45.82 45.77 46.85 47.11 47.47 48.78 49.33 49.53 51.10 50.43 52.39 53.42 55.23 55.45 55.91 58.05 59.17 59.75 59.81 60.89 64.28 67.41 66.15 64.51 62.95 62.30 61.81 62.96
39.62 38.31 39.32 37.13 34.83 26.16 26.74 32.33 42.13 41.55 40.25 38.81 40.15 41.37 40.67 41.32 41.77 42.72 43.65 44.50 44.59 44.77 45.05 45.74 46.11 46.15 47.14 48.47 48.26 48.31 49.08 50.23 52.54 53.70 54.66 57.65 58.07 57.43 57.78 58.07 59.50 61.57 64.47 65.50 63.08 61.34 61.89 63.05 65.78
42.59 41.59 40.52 33.54 30.86 31.72 29.02 31.40 43.58 41.70 41.48 40.15 39.57 40.73 40.78 40.84 42.17 42.81 43.46 43.95 44.02 44.22 45.80 45.99 46.73 46.94 47.96 48.61 47.73 47.58 47.71 48.18 48.81 51.43 53.45 56.48 55.71 56.63 56.96 59.13 58.61 60.71 63.02 64.77 65.01 65.12 66.28 65.37 65.03
MSLP
1011.72 1011.40 1011.25 1011.55 1012.92 1012.96 1011.91 1009.56 1007.65 1006.62 1005.66 1003.94 1003.10 1002.77 1003.55 1003.60 1003.42 1004.78 1004.11 1004.95 1005.66 1006.29 1007.22 1008.19 1008.61 1008.42 1008.50 1008.69 1009.11 1009.62 1010.13 1010.61 1011.00 1011.44 1011.81 1012.11 1012.45 1012.75 1013.04 1013.34 1013.55 1013.71 1013.83 1014.13 1014.46 1014.52 1014.56 1014.72 1014.88
1011.82 1011.43 1011.61 1012.33 1013.23 1013.10 1011.09 1008.42 1006.75 1005.99 1005.09 1004.01 1003.24 1002.78 1003.15 1004.00 1003.74 1004.65 1005.15 1005.54 1005.72 1006.25 1007.03 1007.83 1008.65 1008.54 1008.67 1009.03 1009.40 1009.80 1010.30 1010.66 1011.14 1011.65 1012.02 1012.34 1012.65 1012.91 1013.23 1013.52 1013.69 1013.91 1014.04 1014.15 1014.26 1014.48 1014.67 1014.72 1014.87
1011.77 1011.86 1012.79 1013.16 1013.04 1012.32 1010.30 1007.46 1006.12 1005.60 1004.73 1003.80 1003.09 1002.92 1003.25 1003.92 1004.24 1004.64 1004.81 1005.53 1006.27 1006.68 1007.01 1007.59 1008.38 1008.75 1008.72 1009.03 1009.62 1010.13 1010.45 1010.80 1011.22 1011.73 1012.21 1012.56 1012.84 1013.10 1013.39 1013.61 1013.78 1013.95 1014.17 1014.32 1014.40 1014.62 1014.83 1014.90 1015.02
1012.07 1012.67 1013.33 1013.31 1012.63 1010.66 1009.26 1006.94 1006.85 1005.49 1004.32 1003.23 1003.46 1003.44 1003.74 1003.31 1003.62 1004.39 1005.17 1005.87 1006.37 1007.16 1007.20 1007.40 1008.31 1008.94 1008.98 1009.23 1009.62 1010.13 1010.71 1011.08 1011.35 1011.77 1012.24 1012.60 1012.91 1013.18 1013.40 1013.58 1013.67 1013.82 1014.06 1014.27 1014.48 1014.67 1014.92 1015.05 1015.08
1012.43 1013.47 1013.93 1013.47 1012.24 1010.65 1008.98 1007.93 1008.14 1006.89 1004.63 1003.93 1003.12 1004.26 1004.17 1003.89 1004.00 1004.83 1005.79 1006.37 1006.50 1007.48 1007.73 1007.66 1008.33 1009.15 1009.31 1009.46 1009.92 1010.37 1010.78 1011.15 1011.62 1012.03 1012.31 1012.61 1012.88 1013.11 1013.29 1013.47 1013.66 1013.84 1014.01 1014.23 1014.48 1014.76 1014.91 1015.03 1015.12
1013.10 1013.74 1014.27 1013.55 1012.28 1010.72 1009.15 1008.59 1008.15 1006.91 1005.13 1004.52 1004.15 1004.04 1004.54 1004.67 1004.41 1005.22 1005.64 1006.37 1006.90 1007.30 1008.03 1008.12 1008.51 1009.38 1010.02 1010.11 1010.23 1010.68 1011.14 1011.41 1011.67 1012.18 1012.63 1012.89 1013.06 1013.23 1013.39 1013.58 1013.78 1013.94 1014.05 1014.26 1014.49 1014.70 1014.85 1015.02 1015.14
1013.44 1014.12 1013.90 1013.23 1012.40 1010.96 1009.64 1008.54 1007.67 1007.12 1005.39 1004.46 1004.35 1004.52 1004.86 1004.82 1004.62 1004.99 1005.45 1006.19 1007.07 1007.46 1008.22 1008.61 1008.89 1009.50 1010.30 1010.75 1010.80 1010.94 1011.35 1011.80 1012.04 1012.35 1012.72 1013.14 1013.38 1013.51 1013.55 1013.63 1013.73 1013.98 1014.21 1014.45 1014.48 1014.54 1014.67 1014.87 1014.97
1013.26 1014.09 1013.71 1013.00 1012.30 1010.87 1009.66 1008.35 1007.37 1006.48 1005.06 1004.22 1004.24 1004.82 1004.76 1004.30 1004.32 1005.39 1005.71 1006.69 1007.33 1007.54 1007.65 1008.47 1009.02 1009.67 1010.42 1010.93 1011.32 1011.33 1011.45 1011.68 1012.13 1012.44 1012.80 1013.19 1013.56 1013.77 1013.86 1013.84 1013.87 1013.99 1014.01 1014.12 1014.35 1014.54 1014.56 1014.68 1014.82
1012.78 1013.72 1013.41 1012.60 1011.79 1010.92 1009.65 1008.28 1006.93 1006.10 1004.65 1004.71 1004.79 1004.61 1004.29 1004.26 1004.71 1005.57 1006.27 1007.19 1008.16 1008.85 1009.05 1009.11 1008.62 1009.28 1010.08 1010.62 1011.10 1011.57 1011.82 1012.06 1012.16 1012.48 1012.78 1013.21 1013.52 1013.86 1014.00 1014.09 1014.05 1014.05 1014.06 1014.15 1014.12 1014.25 1014.38 1014.43 1014.60
1012.87 1013.17 1012.22 1011.46 1010.75 1010.20 1009.07 1007.87 1007.21 1006.40 1005.17 1005.41 1005.25 1004.98 1004.99 1004.39 1004.76 1005.77 1006.86 1007.50 1008.24 1008.85 1009.21 1009.36 1009.84 1010.39 1009.78 1010.20 1011.14 1011.69 1011.95 1012.27 1012.61 1012.78 1013.02 1013.26 1013.40 1013.54 1013.83 1013.99 1013.99 1013.96 1013.97 1014.02 1014.12 1014.18 1014.17 1014.33 1014.55
1012.11 1011.68 1010.87 1010.25 1009.68 1009.12 1008.09 1007.39 1006.69 1006.06 1005.05 1003.59 1005.21 1004.77 1005.09 1005.09 1004.96 1005.31 1006.06 1006.55 1007.53 1007.73 1008.48 1009.23 1009.72 1010.29 1011.09 1011.43 1011.29 1011.69 1012.10 1012.47 1012.63 1012.79 1012.87 1013.06 1013.19 1013.41 1013.54 1013.85 1013.94 1014.05 1014.03 1014.00 1013.95 1014.14 1014.24 1014.28 1014.37
1011.33 1010.47 1010.17 1009.18 1008.49 1008.03 1007.69 1007.00 1005.83 1005.03 1004.09 1003.44 1004.12 1004.42 1005.01 1004.93 1004.92 1004.98 1006.27 1006.60 1007.05 1007.31 1007.18 1008.46 1008.55 1009.19 1010.59 1011.08 1011.82 1012.10 1012.07 1012.17 1012.49 1012.62 1012.70 1012.86 1013.09 1013.19 1013.16 1013.27 1013.32 1013.71 1013.78 1014.00 1013.99 1013.94 1013.89 1013.98 1014.06
1010.49 1009.36 1008.83 1007.94 1007.71 1007.25 1006.97 1006.57 1006.16 1004.88 1004.28 1003.78 1003.90 1005.40 1006.09 1005.31 1004.96 1004.51 1004.77 1006.15 1006.86 1007.88 1007.82 1008.10 1008.05 1007.06 1007.86 1011.23 1011.77 1011.84 1012.43 1012.62 1012.04 1012.39 1012.44 1012.39 1012.47 1012.94 1012.99 1012.88 1013.05 1013.16 1013.28 1013.38 1013.62 1013.83 1013.87 1013.92 1013.75
1008.84 1008.48 1008.01 1007.48 1006.87 1006.39 1006.47 1006.16 1005.72 1004.58 1004.37 1004.58 1004.54 1004.96 1005.06 1005.03 1004.50 1004.43 1004.49 1005.12 1006.25 1006.79 1007.08 1007.52 1007.27 1006.85 1007.90 1008.99 1010.04 1010.81 1010.52 1011.49 1012.35 1011.44 1011.39 1011.76 1011.89 1012.04 1012.37 1012.51 1012.48 1012.53 1012.62 1012.85 1012.94 1013.15 1013.49 1013.56 1013.66
1008.18 1008.26 1007.26 1006.69 1006.11 1005.95 1005.74 1005.65 1005.48 1005.08 1004.60 1004.51 1004.50 1004.63 1004.59 1004.48 1004.41 1004.21 1004.36 1004.87 1005.39 1005.89 1006.53 1006.77 1007.13 1007.51 1007.84 1007.91 1007.61 1007.90 1008.17 1008.98 1010.52 1010.73 1010.75 1010.62 1011.21 1011.15 1011.66 1011.74 1011.41 1011.42 1011.57 1011.87 1012.52 1012.90 1013.13 1013.18 1013.12
1008.12 1007.82 1007.18 1005.88 1005.50 1005.30 1005.65 1005.03 1004.92 1004.19 1004.45 1004.88 1004.71 1004.48 1004.34 1004.04 1004.08 1004.08 1004.14 1004.36 1004.76 1004.97 1005.69 1005.94 1006.51 1007.20 1007.63 1007.53 1007.05 1007.70 1007.96 1007.58 1008.00 1008.83 1009.24 1009.33 1009.95 1010.12 1011.05 1011.10 1010.91 1010.69 1010.75 1011.69 1011.80 1011.74 1012.04 1012.50 1012.56
1008.50 1008.30 1007.40 1006.31 1005.31 1005.35 1005.43 1005.14 1004.28 1004.30 1004.56 1004.78 1004.82 1004.49 1004.42 1004.09 1003.85 1003.88 1003.91 1004.21 1004.57 1005.03 1005.49 1005.86 1006.25 1006.72 1006.96 1007.28 1007.50 1007.88 1007.92 1007.97 1007.86 1007.86 1008.53 1008.55 1009.01 1009.45 1010.04 1011.15 1010.76 1011.11 1011.01 1010.73 1011.39 1011.35 1011.39 1011.62 1011.33
1008.85 1008.24 1007.47 1006.60 1005.25 1005.08 1004.96 1004.89 1004.26 1003.96 1004.38 1004.46 1004.49 1004.38 1004.23 1004.20 1003.72 1003.45 1003.65 1004.05 1004.42 1004.64 1005.35 1005.69 1005.92 1006.31 1006.98 1007.43 1007.64 1008.07 1008.05 1007.87 1007.77 1007.69 1008.05 1008.18 1008.24 1008.58 1009.42 1009.96 1010.28 1010.48 1010.95 1010.86 1011.03 1011.30 1011.41 1011.44 1011.09
1008.38 1008.20 1007.63 1006.47 1005.28 1004.70 1004.23 1003.92 1004.34 1004.17 1004.73 1004.89 1004.87 1004.61 1004.36 1004.29 1003.52 1003.36 1003.81 1004.30 1004.85 1004.88 1004.92 1005.71 1006.20 1006.30 1007.03 1007.84 1007.84 1007.85 1007.76 1007.80 1007.91 1008.12 1008.11 1008.03 1008.08 1008.41 1008.67 1009.08 1009.48 1009.66 1010.11 1010.25 1010.60 1010.78 1010.95 1011.19 1011.33
1007.76 1007.54 1006.99 1006.03 1004.81 1004.67 1004.65 1004.64 1004.28 1004.31 1004.63 1004.48 1004.58 1004.86 1004.72 1004.36 1003.94 1004.24 1004.98 1005.26 1005.59 1005.69 1005.78 1006.62 1006.69 1006.40 1006.32 1006.40 1006.36 1006.59 1006.81 1006.76 1007.01 1007.41 1008.01 1008.10 1008.47 1008.35 1007.98 1008.39 1008.50 1009.10 1009.07 1009.46 1009.99 1010.10 1010.55 1010.73 1011.03
1006.72 1006.43 1006.17 1005.81 1005.21 1005.15 1005.32 1005.47 1005.11 1004.47 1004.23 1004.12 1004.49 1004.57 1004.52 1005.02 1005.18 1005.34 1005.86 1005.96 1005.98 1006.23 1006.08 1006.13 1006.40 1006.84 1006.72 1006.63 1006.49 1006.67 1006.91 1007.21 1007.50 1007.64 1007.58 1007.69 1007.83 1007.77 1007.80 1007.97 1008.19 1008.15 1008.32 1008.47 1008.63 1009.04 1009.36 1009.69 1010.12
1005.53 1005.06 1005.42 1005.91 1006.27 1006.70 1006.37 1006.93 1006.13 1005.37 1005.06 1005.01 1004.79 1005.14 1005.31 1005.54 1005.75 1005.72 1006.03 1006.13 1006.19 1006.41 1006.33 1006.34 1006.28 1006.26 1006.47 1006.71 1007.08 1007.22 1007.47 1007.83 1007.65 1007.28 1007.11 1006.99 1007.12 1007.30 1007.53 1007.71 1007.73 1007.38 1007.54 1007.56 1007.71 1008.08 1008.15 1008.75 1009.08
1004.85 1004.87 1005.47 1006.08 1006.99 1007.49 1007.57 1007.84 1006.54 1005.97 1006.08 1006.07 1006.16 1006.37 1005.99 1006.00 1006.10 1006.49 1006.45 1006.24 1006.28 1006.22 1006.41 1006.40 1006.31 1006.28 1006.23 1006.39 1006.86 1007.23 1007.32 1007.44 1007.37 1007.32 1007.16 1007.11 1006.95 1006.88 1006.78 1006.98 1007.02 1007.23 1007.40 1007.39 1007.59 1007.20 1007.51 1007.54 1008.22
1005.01 1005.48 1006.23 1006.82 1007.84 1008.44 1008.32 1008.01 1007.09 1006.29 1006.02 1006.43 1006.52 1006.64 1006.66 1006.60 1006.42 1006.67 1006.62 1006.55 1006.60 1006.41 1006.41 1006.52 1006.62 1006.70 1006.65 1006.68 1006.86 1007.05 1007.23 1007.17 1006.98 1006.81 1006.93 1006.75 1006.43 1006.25 1006.13 1005.83 1006.02 1006.19 1006.66 1006.79 1006.68 1007.34 1007.46 1007.36 1007.38
1005.49 1006.64 1008.22 1008.91 1009.40 1009.61 1008.71 1008.20 1007.24 1006.51 1005.74 1006.00 1006.22 1006.48 1006.59 1006.66 1006.77 1006.87 1006.75 1006.78 1006.71 1006.55 1006.42 1006.43 1006.70 1006.92 1006.96 1006.98 1006.97 1006.91 1006.85 1006.86 1006.78 1006.51 1006.22 1006.21 1006.05 1005.82 1005.59 1005.47 1005.21 1005.03 1005.36 1005.53 1005.75 1006.39 1007.41 1007.42 1007.61
1006.13 1007.27 1009.05 1009.95 1010.48 1010.20 1009.12 1008.57 1007.46 1006.32 1006.12 1006.49 1006.59 1006.67 1006.94 1006.96 1006.86 1006.74 1007.12 1006.85 1006.72 1006.73 1006.72 1006.64 1006.50 1006.48 1006.49 1006.57 1006.62 1006.55 1006.42 1006.39 1006.16 1005.95 1005.77 1005.46 1005.34 1005.08 1004.98 1004.98 1004.80 1004.36 1004.15 1004.82 1005.46 1005.66 1005.49 1006.83 1007.06
1006.55 1007.63 1008.30 1009.99 1010.67 1010.97 1009.63 1008.55 1007.63 1007.09 1006.93 1006.94 1007.08 1007.19 1008.27 1008.42 1008.42 1008.35 1008.38 1008.09 1008.08 1007.95 1008.11 1007.93 1007.26 1006.84 1006.61 1006.36 1006.05 1006.00 1005.78 1005.78 1005.57 1005.30 1004.99 1004.72 1004.52 1004.39 1004.22 1004.14 1004.04 1003.77 1003.46 1003.68 1004.23 1005.11 1005.05 1005.52 1005.20
1006.64 1007.48 1009.91 1010.68 1011.60 1011.24 1009.68 1008.40 1008.23 1008.06 1007.68 1007.71 1008.36 1009.39 1009.87 1009.89 1009.57 1009.32 1009.17 1008.86 1008.58 1008.40 1008.11 1007.64 1007.28 1007.04 1006.81 1006.48 1006.22 1006.10 1005.87 1005.17 1004.72 1004.47 1004.45 1004.24 1003.91 1003.68 1003.61 1003.45 1003.34 1003.06 1002.70 1002.55 1003.10 1003.71 1004.00 1004.23 1004.11
1007.50 1007.99 1009.58 1011.02 1011.54 1011.64 1010.81 1009.14 1008.36 1008.42 1008.86 1010.01 1010.57 1010.68 1010.71 1010.65 1010.62 1010.30 1009.97 1009.67 1009.43 1008.97 1008.60 1008.32 1008.01 1007.70 1007.14 1006.61 1006.13 1005.74 1005.45 1004.99 1004.64 1004.33 1003.78 1003.44 1003.13 1002.87 1002.60 1002.41 1002.39 1002.00 1001.70 1001.83 1002.32 1002.46 1002.73 1003.50 1003.21
1007.90 1008.33 1009.54 1010.87 1011.61 1011.74 1011.51 1009.99 1008.59 1009.44 1010.55 1011.08 1011.44 1011.56 1011.38 1011.12 1010.92 1010.70 1010.30 1009.86 1009.67 1009.54 1009.23 1008.89 1008.44 1008.00 1007.50 1006.89 1006.22 1005.70 1005.18 1004.71 1004.24 1004.04 1003.61 1003.22 1002.73 1002.20 1001.82 1001.52 1001.28 1001.20 1000.71 1000.54 1000.91 1001.10 1001.71 1002.05 1002.47
Wind_Speed
7 7 2 4 3 4 5 9 5 9 8 5 6 9 7 4 2 5 1 13 20 19 16 15 16 18 20 21 21 20 20 19 19 18 17 17 17 17 16 15 15 14 16 15 14 14 13 12 12
4 5 5 2 3 1 7 6 17 10 10 16 11 6 7 1 4 8 6 14 18 18 15 16 15 18 20 20 20 20 20 20 19 17 17 16 16 16 15 14 14 14 14 14 15 14 12 11 10
3 1 3 4 4 9 7 7 11 6 10 13 4 6 3 1 9 8 10 17 15 15 14 15 17 17 20 21 20 18 19 20 20 18 17 16 15 15 14 13 12 13 13 13 13 13 10 9 7
3 5 4 3 10 10 13 14 13 20 14 10 3 8 4 4 4 7 16 17 15 12 12 19 17 16 18 20 20 19 19 19 19 19 17 16 15 13 13 13 13 12 12 12 12 11 9 7 6
3 4 2 4 10 9 13 13 9 10 19 14 3 2 3 4 15 17 15 13 14 11 10 14 17 15 17 19 19 18 19 19 19 17 17 16 15 14 13 13 12 11 11 12 12 9 8 7 5
3 3 1 9 10 8 11 6 7 12 19 5 7 5 1 7 17 14 15 14 12 14 10 11 15 13 13 15 18 17 17 17 18 17 15 14 14 13 12 11 11 10 10 10 10 8 8 7 6
5 4 5 5 4 7 10 7 10 9 14 3 2 3 1 2 12 16 15 14 13 14 12 8 9 11 11 11 14 16 16 15 15 15 14 13 12 11 11 11 11 10 9 8 9 9 9 8 7
4 4 3 4 4 9 10 6 8 20 18 1 6 2 3 4 15 10 11 10 10 12 16 14 10 8 6 6 9 13 16 16 15 15 14 13 12 11 10 9 10 10 10 11 10 9 9 9 9
3 1 5 6 6 5 15 6 11 19 10 7 3 5 3 2 7 9 12 9 7 6 5 4 14 13 9 8 9 10 13 14 16 14 15 11 6 6 8 8 10 11 11 10 11 10 10 10 9
5 4 10 8 7 6 15 9 12 17 20 10 11 9 10 3 7 11 9 9 9 9 7 6 5 3 9 9 6 5 6 4 5 6 8 5 6 7 7 8 12 12 12 12 11 11 11 9 4
5 10 7 10 13 17 24 16 18 17 9 26 20 10 4 2 2 4 10 14 14 15 10 8 8 6 3 3 4 4 3 3 3 6 8 7 6 6 5 4 5 4 10 4 6 6 4 6 5
4 9 13 16 16 14 8 9 9 7 21 17 30 2 2 6 6 1 8 9 14 15 19 14 13 11 4 4 2 0 4 5 5 7 8 6 5 6 6 6 7 6 4 6 5 4 5 6 7
8 15 14 17 16 16 11 14 17 6 8 7 8 14 26 9 8 6 4 11 12 7 10 13 14 15 17 8 5 4 2 5 9 8 10 8 8 8 7 7 6 7 6 7 6 5 5 6 7
8 17 19 16 17 11 13 11 5 9 2 7 6 11 12 7 9 5 4 0 12 15 15 9 12 13 16 16 14 5 4 8 9 11 12 14 10 9 9 9 9 8 8 8 7 8 7 7 5
6 6 14 19 13 9 10 7 11 9 6 9 10 9 9 9 9 9 4 3 8 11 14 15 14 14 17 17 14 10 13 12 12 13 14 16 14 12 11 10 11 11 10 11 6 6 5 5 5
4 1 3 6 7 10 7 17 7 12 8 11 11 8 8 10 6 4 4 1 3 11 17 17 13 13 14 15 10 10 13 15 19 13 13 17 17 14 12 10 11 10 9 8 9 10 10 9 7
5 4 4 8 4 2 6 7 16 9 7 8 10 10 10 9 6 5 6 5 6 9 9 11 9 10 13 10 8 8 11 8 8 9 11 14 17 16 11 10 9 7 8 9 9 9 9 9 9
5 4 5 7 11 6 12 14 12 5 7 12 10 11 9 9 11 9 8 4 6 9 11 11 10 9 8 3 4 5 3 8 8 6 7 12 12 14 12 11 10 6 8 7 6 5 4 5 8
5 7 9 12 12 4 11 18 11 5 4 7 7 7 9 9 11 7 5 4 0 3 12 13 12 14 9 7 8 7 6 5 3 5 8 7 8 13 15 13 12 9 9 8 7 6 7 7 3
11 15 16 9 7 3 6 5 7 5 8 9 11 10 10 8 8 5 9 8 8 5 1 4 6 6 1 4 6 5 5 4 5 5 6 6 10 16 15 16 13 12 10 11 9 7 4 6 6
11 6 5 6 4 3 2 7 4 6 5 5 5 1 2 3 1 9 9 7 9 10 8 8 7 8 3 1 1 2 2 1 3 4 5 10 12 14 14 15 10 13 12 12 13 12 14 10 6
5 9 3 2 4 2 4 5 5 5 10 7 6 8 9 9 6 9 8 8 8 6 7 7 7 7 7 6 6 3 0 2 4 4 4 6 8 11 12 12 12 15 9 13 13 11 13 12 11
8 4 4 3 4 3 7 3 8 3 4 4 6 6 5 8 9 7 7 7 5 6 6 6 7 8 7 7 6 3 2 2 2 3 5 5 6 8 11 12 12 15 9 9 14 12 13 13 12
2 1 6 5 3 3 4 4 5 3 5 4 3 6 7 7 7 6 5 5 3 2 5 5 6 3 4 4 3 3 4 5 5 2 3 4 5 5 7 12 12 12 12 10 10 8 8 11 11
7 6 4 4 5 3 5 4 7 8 3 4 8 6 6 6 6 6 8 5 5 6 4 5 5 2 1 1 3 4 5 6 6 7 4 5 4 5 6 7 11 11 13 13 12 8 4 5 9
1 7 5 3 2 3 4 1 5 2 8 7 6 6 5 5 2 3 9 7 7 6 4 3 3 3 4 4 6 6 7 5 5 7 6 5 5 6 7 7 10 14 14 11 10 6 7 7 11
3 3 5 4 5 2 4 4 3 3 4 3 4 1 13 13 13 10 11 10 11 9 10 9 10 10 10 8 6 7 7 7 7 8 7 5 6 5 7 7 10 14 14 16 17 11 12 17 19
6 3 5 4 4 4 3 4 6 0 4 5 8 12 9 8 10 9 9 9 8 7 7 9 9 7 7 8 7 7 8 8 8 7 8 8 7 6 6 8 9 12 15 12 15 13 16 17 14
3 2 3 3 4 5 1 4 6 3 7 11 7 7 7 7 7 7 7 6 5 6 8 8 8 8 10 11 8 7 7 9 9 7 7 8 7 7 7 7 7 12 15 13 15 15 16 19 19
3 3 1 4 4 3 5 6 4 15 11 7 6 6 5 5 6 6 7 8 8 8 10 10 10 12 12 12 8 8 7 7 6 7 9 8 8 6 7 6 8 11 14 15 15 19 17 21 18
Wind_Direction
313 312 298 36 38 73 250 249 249 276 313 233 259 118 145 293 146 198 326 143 138 141 151 160 165 147 138 135 134 132 132 129 124 123 123 123 123 125 127 127 128 129 130 130 132 131 132 131 124
333 314 34 78 120 210 257 241 254 256 267 293 274 108 56 21 56 112 100 149 144 140 149 155 164 150 142 138 137 136 136 131 128 127 128 128 128 130 131 130 133 134 135 139 140 139 138 133 126
327 304 83 152 183 211 228 224 258 291 300 296 192 61 75 45 118 151 131 140 139 142 149 151 158 156 146 142 140 139 140 136 134 134 135 136 137 136 133 135 136 138 142 145 144 143 141 136 135
22 16 4 165 231 250 233 263 360 329 312 270 352 85 52 280 132 150 137 139 134 143 151 149 153 158 149 145 144 144 144 142 141 142 143 145 143 140 140 144 145 148 152 150 149 149 145 141 146
39 71 250 231 241 264 268 286 327 294 284 327 171 88 92 24 104 124 134 141 137 141 151 145 149 158 154 149 148 147 148 147 146 148 150 152 151 152 152 153 153 155 156 154 153 152 150 152 162
31 108 211 242 251 270 279 329 300 266 285 323 2 113 188 118 127 146 145 149 148 142 145 145 143 149 156 153 150 149 150 152 150 152 155 158 158 159 158 157 157 159 157 155 155 155 162 170 185
143 117 224 229 257 272 279 325 274 265 269 326 180 30 36 143 160 159 155 152 147 141 134 135 135 142 152 158 154 151 152 155 153 153 156 160 163 164 163 162 162 161 156 159 162 169 178 188 199
136 108 256 226 268 283 283 266 260 286 258 214 132 258 245 246 155 141 146 139 147 152 150 146 135 130 132 144 163 159 160 157 158 159 159 161 165 166 169 169 169 168 168 173 178 186 189 197 212
98 359 244 233 232 271 286 293 300 283 257 91 324 178 236 290 113 115 126 117 112 88 72 114 149 147 147 150 167 166 167 166 163 165 164 158 159 169 178 184 182 180 182 187 189 192 197 208 222
144 160 232 227 248 245 260 247 280 302 271 261 285 294 343 345 95 113 115 137 137 119 106 99 73 15 153 157 145 139 162 153 166 167 166 166 170 171 180 190 192 192 194 195 199 203 204 213 219
198 228 229 249 237 237 246 278 276 268 268 190 232 284 206 324 6 132 139 146 148 147 138 144 116 96 30 7 141 155 154 162 173 183 178 180 180 184 180 181 197 204 209 206 203 207 213 212 214
231 244 235 254 257 261 262 258 286 245 238 192 244 360 107 245 263 154 112 162 152 161 160 147 141 139 161 119 132 134 190 184 199 200 195 186 189 193 191 191 191 190 201 209 218 211 211 219 225
206 238 237 240 250 253 249 257 250 287 296 248 182 29 280 280 255 280 222 134 133 154 177 167 173 166 138 137 106 103 220 232 197 200 203 197 193 197 198 200 192 201 197 202 208 213 219 230 229
224 231 245 260 254 253 254 255 193 246 182 194 206 198 239 242 276 279 310 178 164 177 195 181 187 160 146 155 156 201 163 218 233 203 199 204 204 202 200 202 201 203 199 207 208 205 209 222 223
226 227 258 248 249 234 194 206 238 222 232 237 228 217 236 247 255 259 245 258 159 188 192 190 183 178 186 184 172 170 187 189 206 215 209 197 208 208 208 211 200 206 203 200 194 214 223 222 220
322 298 251 269 214 245 141 258 242 245 208 223 225 221 248 263 220 242 255 61 28 165 186 191 187 183 193 197 180 187 203 205 192 206 200 198 205 202 220 216 219 219 194 210 208 202 201 216 207
355 255 286 308 218 245 163 266 254 244 186 233 229 210 221 249 256 231 230 181 131 143 171 187 187 179 186 200 191 223 227 210 212 196 202 201 204 203 198 235 226 222 213 198 215 216 215 223 217
240 300 292 268 279 269 259 238 254 239 218 228 212 213 222 225 239 240 250 207 144 147 161 185 191 196 194 202 239 246 231 218 220 211 209 203 206 203 210 220 223 192 216 225 218 231 218 251 226
267 281 268 274 255 206 263 226 231 231 215 271 279 246 228 231 243 246 258 337 60 137 156 176 189 205 179 195 216 216 213 214 229 239 225 224 214 216 211 218 216 191 208 214 209 205 211 232 204
256 264 269 263 305 28 354 219 219 211 209 202 212 232 246 251 257 314 45 69 74 50 187 115 16 351 284 216 212 195 193 215 217 202 210 227 215 224 221 225 219 214 214 210 205 193 200 223 181
237 211 250 259 305 16 31 331 319 300 335 299 221 334 24 77 22 98 73 62 70 56 41 49 66 124 102 58 24 14 32 49 234 237 240 223 217 227 220 231 227 222 219 224 216 206 210 222 202
273 248 261 32 72 256 77 268 302 312 324 22 33 115 117 109 90 102 106 81 83 79 75 75 51 54 80 88 71 59 329 240 259 245 241 251 227 220 232 234 232 235 227 227 217 217 215 219 215
234 247 158 121 107 104 338 74 273 310 45 92 86 82 84 111 105 104 106 108 97 87 82 78 62 53 38 42 52 59 20 191 222 271 285 275 270 243 238 222 223 232 234 228 241 219 215 220 228
331 321 40 53 68 9 214 155 288 303 157 146 148 147 135 123 116 126 141 123 106 71 89 98 87 69 49 62 58 23 329 314 325 290 262 258 253 270 266 256 228 224 228 225 231 260 256 239 224
68 48 2 353 9 224 29 32 255 342 92 158 156 136 135 139 145 165 169 170 173 178 178 168 139 149 185 320 287 240 243 262 270 276 253 246 256 273 263 247 263 240 228 225 211 212 254 272 261
83 126 143 229 217 201 111 266 287 172 119 133 140 140 121 176 249 289 15 352 322 335 10 334 306 242 220 215 234 244 251 240 238 237 248 237 232 261 275 257 255 258 244 210 219 199 168 286 262
330 68 182 95 233 311 225 168 33 36 39 80 60 78 40 42 32 36 19 19 21 17 12 353 352 339 325 289 248 238 240 246 247 247 236 234 249 258 267 283 275 262 253 217 206 217 214 214 233
137 107 29 352 203 221 243 178 161 122 244 199 42 62 43 29 25 18 21 15 11 13 356 357 357 345 320 314 309 309 292 264 247 244 243 241 240 239 260 282 284 281 261 215 213 220 226 220 232
42 91 122 150 152 183 209 243 150 243 48 81 62 57 49 37 22 6 355 351 339 344 349 333 329 324 321 317 309 309 304 305 294 261 248 237 240 246 250 266 276 280 271 227 218 213 216 225 231
203 225 135 133 244 189 144 277 2 93 85 83 62 38 25 15 345 342 339 345 350 347 343 344 337 329 322 308 303 303 299 303 303 303 300 287 271 256 251 277 290 288 282 257 235 228 221 224 224